{"data":{"norad_id":64175,"epoch":"2026-05-25T03:39:09.628992Z","epoch_age_seconds":55685,"freshness":"FRESH","line1":"1 64175U 25113F   26145.15219478  .00018869  00000+0  61803-3 0  9992","line2":"2 64175  53.1576  95.8442 0001139  83.7212 276.3919 15.31711985 56774","mean_motion":15.31711985,"eccentricity":0.0001139,"inclination_deg":53.1576,"raan_deg":95.8442,"arg_perigee_deg":83.7212,"mean_anomaly_deg":276.3919,"bstar":0.00061803,"rev_number":5677,"period_min":94.012452347561,"perigee_km":469.92418577674,"apogee_km":471.48435181777,"semimajor_km":6848.8412687973,"source":"CELESTRAK","updated_at":"2026-05-25T13:38:20.309969Z"}}